| time (UTC) | temp C | wind direction | speed KPH | gust KPH | rain 1hr cm | rain 24hr cm | rain mn cm | humidity % | barometer mb |
| 20260505035517 | 8 | 180 | 4.8 | 9.7 | 0.08 | 0.13 | 0.13 | 82 | 1006.6 |
| 20260505035017 | 8 | 180 | 3.2 | 6.4 | 0.08 | 0.13 | 0.13 | 83 | 1006.6 |
| 20260505034517 | 8 | 180 | 4.8 | 11.3 | 0.08 | 0.13 | 0.13 | 83 | 1006.6 |
| 20260505034017 | 8 | 202 | 8.0 | 12.9 | 0.08 | 0.13 | 0.13 | 83 | 1006.6 |
| 20260505033517 | 8 | 202 | 8.0 | 11.3 | 0.08 | 0.13 | 0.13 | 84 | 1006.6 |
| 20260505033017 | 9 | 180 | 8.0 | 11.3 | 0.10 | 0.13 | 0.13 | 84 | 1006.5 |
| 20260505032537 | 9 | 180 | 9.7 | 12.9 | 0.08 | 0.10 | 0.10 | 83 | 1006.4 |
| 20260505032017 | 9 | 180 | 9.7 | 14.5 | 0.08 | 0.10 | 0.10 | 82 | 1006.4 |
| 20260505031517 | 9 | 180 | 8.0 | 12.9 | 0.08 | 0.10 | 0.10 | 81 | 1006.3 |
| 20260505031017 | 9 | 180 | 8.0 | 12.9 | 0.08 | 0.10 | 0.10 | 81 | 1006.2 |
| 20260505030517 | 9 | 180 | 8.0 | 14.5 | 0.05 | 0.08 | 0.08 | 80 | 1006.1 |
| 20260505030017 | 10 | 180 | 11.3 | 16.1 | 0.05 | 0.08 | 0.08 | 79 | 1006.0 |
| 20260505025518 | 10 | 180 | 11.3 | 17.7 | 0.03 | 0.05 | 0.05 | 78 | 1006.0 |
| 20260505025037 | 10 | 180 | 9.7 | 14.5 | 0.03 | 0.05 | 0.05 | 77 | 1005.8 |
| 20260505024517 | 10 | 202 | 11.3 | 17.7 | 0.03 | 0.05 | 0.05 | 75 | 1005.6 |
| 20260505024018 | 10 | 202 | 12.9 | 19.3 | 0.03 | 0.05 | 0.05 | 72 | 1005.4 |
| 20260505023517 | 10 | 202 | 12.9 | 19.3 | 0.03 | 0.05 | 0.05 | 71 | 1005.4 |
| 20260505023017 | 10 | 202 | 9.7 | 11.3 | 0.00 | 0.03 | 0.03 | 72 | 1005.2 |
| 20260505022517 | 10 | 202 | 6.4 | 9.7 | 0.00 | 0.03 | 0.03 | 71 | 1005.1 |
| 20260505022017 | 10 | 225 | 6.4 | 8.0 | 0.00 | 0.03 | 0.03 | 71 | 1005.2 |
| 20260505021517 | 10 | 247 | 6.4 | 9.7 | 0.00 | 0.03 | 0.03 | 70 | 1005.0 |
| 20260505021017 | 10 | 247 | 8.0 | 12.9 | 0.00 | 0.03 | 0.03 | 70 | 1005.0 |
| 20260505020517 | 10 | 247 | 6.4 | 11.3 | 0.00 | 0.03 | 0.03 | 71 | 1005.0 |
| 20260505020059 | 10 | 247 | 6.4 | 8.0 | 0.00 | 0.03 | 0.03 | 73 | 1005.0 |
| 20260505015517 | 10 | 270 | 3.2 | 8.0 | 0.00 | 0.03 | 0.03 | 73 | 1005.1 |
| 20260505015017 | 10 | 270 | 4.8 | 8.0 | 0.00 | 0.03 | 0.03 | 74 | 1004.9 |
| 20260505014517 | 10 | 292 | 3.2 | 6.4 | 0.00 | 0.03 | 0.03 | 75 | 1004.7 |
| 20260505014037 | 10 | 292 | 3.2 | 9.7 | 0.00 | 0.03 | 0.03 | 74 | 1004.7 |
| 20260505013517 | 10 | 270 | 8.0 | 14.5 | 0.00 | 0.03 | 0.03 | 72 | 1004.5 |
| 20260505013017 | 10 | 270 | 8.0 | 17.7 | 0.00 | 0.03 | 0.03 | 70 | 1004.5 |
| 20260505012517 | 11 | 270 | 9.7 | 16.1 | 0.00 | 0.03 | 0.03 | 69 | 1004.5 |
| 20260505012017 | 11 | 292 | 6.4 | 12.9 | 0.00 | 0.03 | 0.03 | 69 | 1004.5 |
| 20260505011517 | 11 | 292 | 8.0 | 12.9 | 0.00 | 0.03 | 0.03 | 69 | 1004.6 |
| 20260505011138 | 11 | 270 | 8.0 | 12.9 | 0.00 | 0.03 | 0.03 | 67 | 1004.6 |
| 20260505010517 | 11 | 270 | 11.3 | 20.9 | 0.00 | 0.03 | 0.03 | 67 | 1004.4 |
| 20260505010017 | 11 | 270 | 14.5 | 22.5 | 0.00 | 0.03 | 0.03 | 65 | 1004.5 |
| 20260505005517 | 12 | 270 | 12.9 | 25.7 | 0.00 | 0.03 | 0.03 | 63 | 1004.4 |
| 20260505005017 | 12 | 270 | 11.3 | 20.9 | 0.00 | 0.03 | 0.03 | 61 | 1004.2 |
| 20260505004517 | 12 | 270 | 8.0 | 12.9 | 0.00 | 0.03 | 0.03 | 61 | 1004.3 |
| 20260505004017 | 12 | 292 | 6.4 | 12.9 | 0.00 | 0.03 | 0.03 | 60 | 1004.1 |
| 20260505003518 | 12 | 292 | 8.0 | 14.5 | 0.00 | 0.03 | 0.03 | 59 | 1004.0 |
| 20260505003016 | 13 | 292 | 8.0 | 20.9 | 0.00 | 0.03 | 0.03 | 59 | 1003.9 |
| 20260505002517 | 13 | 292 | 3.2 | 8.0 | 0.00 | 0.03 | 0.03 | 57 | 1003.6 |
| 20260505002017 | 13 | 315 | 1.6 | 9.7 | 0.00 | 0.03 | 0.03 | 54 | 1003.2 |
| 20260505001537 | 13 | 337 | 4.8 | 9.7 | 0.00 | 0.03 | 0.03 | 55 | 1003.2 |
| 20260505001016 | 13 | 315 | 3.2 | 8.0 | 0.00 | 0.03 | 0.03 | 55 | 1003.2 |
| 20260505000517 | 14 | 292 | 4.8 | 11.3 | 0.00 | 0.03 | 0.03 | 54 | 1003.2 |
| 20260505000017 | 14 | 292 | 1.6 | 8.0 | 0.00 | 0.03 | 0.03 | 57 | 1003.0 |
| 20260504235517 | 14 | 337 | 1.6 | 6.4 | 0.03 | 0.03 | 0.03 | 56 | 1003.1 |
| 20260504235017 | 14 | 0.0 | 3.2 | 0.03 | 0.03 | 0.03 | 60 | 1003.1 | |
| 20260504234537 | 14 | 315 | 1.6 | 4.8 | 0.03 | 0.03 | 0.03 | 63 | 1003.1 |
| 20260504234017 | 14 | 337 | 1.6 | 6.4 | 0.03 | 0.03 | 0.03 | 60 | 1002.9 |
| 20260504233518 | 14 | 0 | 1.6 | 6.4 | 0.03 | 0.03 | 0.03 | 58 | 1002.8 |
| 20260504233017 | 14 | 45 | 1.6 | 4.8 | 0.03 | 0.03 | 0.03 | 54 | 1002.6 |
| 20260504232556 | 14 | 292 | 1.6 | 3.2 | 0.03 | 0.03 | 0.03 | 57 | 1003.0 |
| 20260504232037 | 13 | 292 | 1.6 | 3.2 | 0.03 | 0.03 | 0.03 | 58 | 1003.1 |
| 20260504231516 | 13 | 0.0 | 0.0 | 0.03 | 0.03 | 0.03 | 66 | 1003.2 | |
| 20260504231017 | 13 | 292 | 1.6 | 6.4 | 0.03 | 0.03 | 0.03 | 66 | 1003.2 |
| 20260504230536 | 12 | 337 | 3.2 | 4.8 | 0.03 | 0.03 | 0.03 | 66 | 1003.0 |
| 20260504230037 | 12 | 270 | 6.4 | 9.7 | 0.03 | 0.03 | 0.03 | 59 | 1003.0 |
| 20260504225517 | 13 | 247 | 9.7 | 17.7 | 0.00 | 0.00 | 0.00 | 56 | 1003.3 |
| 20260504225016 | 15 | 247 | 14.5 | 22.5 | 0.00 | 0.00 | 0.00 | 50 | 1003.0 |
| 20260504224517 | 15 | 270 | 9.7 | 17.7 | 0.00 | 0.00 | 0.00 | 42 | 1002.7 |
| 20260504224036 | 15 | 270 | 4.8 | 9.7 | 0.00 | 0.00 | 0.00 | 41 | 1002.4 |
| 20260504223516 | 15 | 292 | 4.8 | 11.3 | 0.00 | 0.00 | 0.00 | 41 | 1002.3 |
| 20260504223016 | 16 | 315 | 3.2 | 6.4 | 0.00 | 0.00 | 0.00 | 41 | 1002.0 |
| 20260504222537 | 16 | 0 | 3.2 | 6.4 | 0.00 | 0.00 | 0.00 | 39 | 1002.0 |
| 20260504222016 | 16 | 337 | 6.4 | 12.9 | 0.00 | 0.00 | 0.00 | 39 | 1002.1 |
| 20260504221517 | 16 | 337 | 8.0 | 12.9 | 0.00 | 0.00 | 0.00 | 38 | 1002.0 |
| 20260504221016 | 16 | 0 | 9.7 | 14.5 | 0.00 | 0.00 | 0.00 | 39 | 1001.8 |
| 20260504220537 | 16 | 0 | 8.0 | 14.5 | 0.00 | 0.00 | 0.00 | 39 | 1001.6 |
| 20260504220036 | 17 | 0 | 8.0 | 16.1 | 0.00 | 0.00 | 0.00 | 40 | 1001.3 |
| 20260504215517 | 17 | 0 | 8.0 | 16.1 | 0.00 | 0.00 | 0.00 | 39 | 1001.4 |
| 20260504215016 | 17 | 22 | 4.8 | 9.7 | 0.00 | 0.00 | 0.00 | 40 | 1001.5 |
| 20260504214517 | 16 | 45 | 6.4 | 14.5 | 0.00 | 0.00 | 0.00 | 40 | 1001.7 |
| 20260504214017 | 16 | 45 | 8.0 | 14.5 | 0.00 | 0.00 | 0.00 | 42 | 1001.9 |
| 20260504213516 | 16 | 67 | 8.0 | 17.7 | 0.00 | 0.00 | 0.00 | 43 | 1002.1 |
| 20260504213036 | 16 | 67 | 8.0 | 20.9 | 0.00 | 0.00 | 0.00 | 41 | 1002.3 |
| 20260504212516 | 16 | 67 | 11.3 | 20.9 | 0.00 | 0.00 | 0.00 | 47 | 1002.6 |
| 20260504212016 | 15 | 90 | 9.7 | 17.7 | 0.00 | 0.00 | 0.00 | 47 | 1002.7 |
| 20260504211516 | 15 | 22 | 8.0 | 19.3 | 0.00 | 0.00 | 0.00 | 44 | 1002.9 |
| 20260504211036 | 15 | 0 | 9.7 | 24.1 | 0.00 | 0.00 | 0.00 | 43 | 1003.2 |
| 20260504210517 | 15 | 337 | 12.9 | 24.1 | 0.00 | 0.00 | 0.00 | 46 | 1003.3 |
| 20260504210016 | 16 | 337 | 9.7 | 19.3 | 0.00 | 0.00 | 0.00 | 39 | 1003.2 |
| 20260504205516 | 16 | 315 | 6.4 | 14.5 | 0.00 | 0.00 | 0.00 | 39 | 1002.9 |
| 20260504205016 | 16 | 337 | 4.8 | 12.9 | 0.00 | 0.00 | 0.00 | 40 | 1003.0 |
| 20260504204516 | 16 | 337 | 8.0 | 20.9 | 0.00 | 0.00 | 0.00 | 38 | 1002.8 |
| 20260504204016 | 17 | 337 | 11.3 | 19.3 | 0.00 | 0.00 | 0.00 | 34 | 1002.4 |
| 20260504203516 | 17 | 315 | 8.0 | 19.3 | 0.00 | 0.00 | 0.00 | 33 | 1002.3 |
| 20260504203017 | 17 | 337 | 11.3 | 19.3 | 0.00 | 0.00 | 0.00 | 33 | 1002.0 |
| 20260504202516 | 17 | 337 | 14.5 | 38.6 | 0.00 | 0.00 | 0.00 | 33 | 1001.8 |
| 20260504202016 | 17 | 337 | 19.3 | 37.0 | 0.00 | 0.00 | 0.00 | 32 | 1001.3 |
| 20260504201516 | 18 | 337 | 17.7 | 32.2 | 0.00 | 0.00 | 0.00 | 31 | 1001.4 |
| 20260504201017 | 20 | 315 | 19.3 | 33.8 | 0.00 | 0.00 | 0.00 | 28 | 1001.7 |
| 20260504200516 | 21 | 315 | 11.3 | 22.5 | 0.00 | 0.00 | 0.00 | 24 | 1001.6 |
| 20260504200016 | 21 | 315 | 9.7 | 20.9 | 0.00 | 0.00 | 0.00 | 24 | 1001.7 |
| 20260504195536 | 22 | 337 | 8.0 | 25.7 | 0.00 | 0.00 | 0.00 | 24 | 1001.7 |
| 20260504195016 | 21 | 270 | 9.7 | 22.5 | 0.00 | 0.00 | 0.00 | 25 | 1001.6 |
| 20260504194516 | 22 | 270 | 11.3 | 19.3 | 0.00 | 0.00 | 0.00 | 25 | 1001.6 |
| 20260504194018 | 22 | 270 | 11.3 | 20.9 | 0.00 | 0.00 | 0.00 | 23 | 1001.6 |
| 20260504193516 | 22 | 270 | 11.3 | 20.9 | 0.00 | 0.00 | 0.00 | 25 | 1001.6 |
| 20260504193037 | 22 | 247 | 12.9 | 22.5 | 0.00 | 0.00 | 0.00 | 24 | 1001.6 |
| 20260504192516 | 22 | 270 | 14.5 | 35.4 | 0.00 | 0.00 | 0.00 | 23 | 1001.8 |
| 20260504192016 | 23 | 270 | 17.7 | 35.4 | 0.00 | 0.00 | 0.00 | 23 | 1001.8 |
| 20260504191517 | 22 | 270 | 17.7 | 35.4 | 0.00 | 0.00 | 0.00 | 25 | 1001.9 |
| 20260504191016 | 22 | 247 | 12.9 | 24.1 | 0.00 | 0.00 | 0.00 | 23 | 1001.9 |
| 20260504190516 | 22 | 247 | 12.9 | 22.5 | 0.00 | 0.00 | 0.00 | 24 | 1002.0 |
| 20260504190016 | 22 | 247 | 16.1 | 25.7 | 0.00 | 0.00 | 0.00 | 24 | 1001.8 |
| 20260504185536 | 22 | 247 | 20.9 | 30.6 | 0.00 | 0.00 | 0.00 | 23 | 1002.0 |
| 20260504185016 | 22 | 247 | 19.3 | 27.4 | 0.00 | 0.00 | 0.00 | 23 | 1002.0 |
| 20260504184516 | 22 | 225 | 20.9 | 27.4 | 0.00 | 0.00 | 0.00 | 22 | 1002.0 |
| 20260504184016 | 22 | 225 | 19.3 | 32.2 | 0.00 | 0.00 | 0.00 | 23 | 1002.0 |
| 20260504183516 | 22 | 225 | 20.9 | 29.0 | 0.00 | 0.00 | 0.00 | 23 | 1002.1 |
| 20260504183016 | 22 | 247 | 19.3 | 29.0 | 0.00 | 0.00 | 0.00 | 23 | 1002.2 |
| 20260504182516 | 22 | 225 | 22.5 | 29.0 | 0.00 | 0.00 | 0.00 | 24 | 1002.2 |
| 20260504182016 | 21 | 225 | 20.9 | 32.2 | 0.00 | 0.00 | 0.00 | 25 | 1002.4 |
| 20260504181536 | 21 | 225 | 22.5 | 33.8 | 0.00 | 0.00 | 0.00 | 24 | 1002.4 |
| 20260504181016 | 21 | 247 | 20.9 | 29.0 | 0.00 | 0.00 | 0.00 | 24 | 1002.4 |
| 20260504180516 | 21 | 225 | 19.3 | 33.8 | 0.00 | 0.00 | 0.00 | 24 | 1002.4 |
| 20260504180016 | 21 | 225 | 20.9 | 30.6 | 0.00 | 0.00 | 0.00 | 25 | 1002.5 |
| 20260504175516 | 21 | 225 | 20.9 | 29.0 | 0.00 | 0.00 | 0.00 | 26 | 1002.5 |
| 20260504175137 | 20 | 225 | 17.7 | 25.7 | 0.00 | 0.00 | 0.00 | 26 | 1002.7 |
| 20260504174516 | 20 | 202 | 16.1 | 22.5 | 0.00 | 0.00 | 0.00 | 26 | 1002.9 |
| 20260504174016 | 20 | 180 | 9.7 | 19.3 | 0.00 | 0.00 | 0.00 | 27 | 1003.1 |
| 20260504173516 | 19 | 202 | 4.8 | 11.3 | 0.00 | 0.00 | 0.00 | 28 | 1003.2 |
| 20260504173016 | 19 | 202 | 6.4 | 9.7 | 0.00 | 0.00 | 0.00 | 29 | 1003.1 |
| 20260504172537 | 19 | 180 | 6.4 | 9.7 | 0.00 | 0.00 | 0.00 | 29 | 1003.1 |
| 20260504172017 | 18 | 180 | 9.7 | 17.7 | 0.00 | 0.00 | 0.00 | 29 | 1003.0 |
| 20260504171536 | 18 | 180 | 9.7 | 14.5 | 0.00 | 0.00 | 0.00 | 29 | 1003.1 |
| 20260504171016 | 18 | 180 | 11.3 | 19.3 | 0.00 | 0.00 | 0.00 | 28 | 1003.1 |
| 20260504170536 | 18 | 180 | 11.3 | 17.7 | 0.00 | 0.00 | 0.00 | 28 | 1003.1 |
| 20260504151016 | 18 | 225 | 20.9 | 30.6 | 0.00 | 0.00 | 0.00 | 26 | 1003.4 |
| 20260504150515 | 18 | 225 | 16.1 | 22.5 | 0.00 | 0.00 | 0.00 | 27 | 1003.5 |
| 20260504141017 | 14 | 157 | 4.8 | 6.4 | 0.00 | 0.00 | 0.00 | 32 | 1003.5 |
| 20260504140515 | 14 | 180 | 6.4 | 8.0 | 0.00 | 0.00 | 0.00 | 31 | 1003.4 |
| 20260504130517 | 11 | 202 | 11.3 | 16.1 | 0.00 | 0.00 | 0.00 | 32 | 1003.4 |
| 20260504110517 | 3 | 0.0 | 0.0 | 0.00 | 0.00 | 0.00 | 53 | 1002.8 | |
| 20260504100517 | 3 | 0.0 | 0.0 | 0.00 | 0.00 | 0.00 | 51 | 1003.0 | |
| 20260504081516 | 8 | 247 | 3.2 | 4.8 | 0.00 | 0.00 | 0.00 | 38 | 1004.0 |
| 20260504081017 | 8 | 247 | 1.6 | 3.2 | 0.00 | 0.00 | 0.00 | 38 | 1004.1 |
| 20260504080517 | 8 | 247 | 1.6 | 3.2 | 0.00 | 0.00 | 0.00 | 38 | 1004.3 |
| 20260504050519 | 12 | 292 | 1.6 | 4.8 | 0.00 | 0.00 | 0.00 | 37 | 1005.1 |
| 20260504050018 | 12 | 315 | 1.6 | 4.8 | 0.00 | 0.00 | 0.00 | 36 | 1005.3 |
| 20260504045517 | 13 | 315 | 3.2 | 9.7 | 0.00 | 0.00 | 0.00 | 35 | 1005.3 |
| 20260504045017 | 13 | 292 | 4.8 | 8.0 | 0.00 | 0.00 | 0.00 | 33 | 1005.4 |
| 20260504044537 | 14 | 315 | 4.8 | 11.3 | 0.00 | 0.00 | 0.00 | 30 | 1005.5 |
| 20260504044017 | 15 | 315 | 6.4 | 11.3 | 0.00 | 0.00 | 0.00 | 29 | 1005.3 |
| 20260504043538 | 15 | 292 | 4.8 | 11.3 | 0.00 | 0.00 | 0.00 | 29 | 1005.4 |
| 20260504043017 | 15 | 315 | 6.4 | 12.9 | 0.00 | 0.00 | 0.00 | 28 | 1005.4 |
| 20260504042518 | 15 | 292 | 6.4 | 12.9 | 0.00 | 0.00 | 0.00 | 27 | 1005.4 |
| 20260504042017 | 15 | 270 | 6.4 | 12.9 | 0.00 | 0.00 | 0.00 | 27 | 1005.3 |
| 20260504041515 | 16 | 270 | 9.7 | 16.1 | 0.00 | 0.00 | 0.00 | 27 | 1005.5 |
| 20260504041018 | 16 | 247 | 12.9 | 17.7 | 0.00 | 0.00 | 0.00 | 26 | 1005.1 |
| 20260504040517 | 16 | 247 | 12.9 | 17.7 | 0.00 | 0.00 | 0.00 | 26 | 1005.2 |
| 20260504040017 | 16 | 247 | 11.3 | 16.1 | 0.00 | 0.00 | 0.00 | 26 | 1005.3 |